Location: Boiro
(42.6475°N, 8.8834°W)
Time: 09:38:55
(UTC+02:00)

METEOR 2-15 DEB - Visible Passes

Search period start: 26 June 2022 00:00
Search period end: 06 July 2022 00:00
Orbit: 889 x 916 km, 82.5° (Epoch: 22 June)

Date Brightness Start Highest point End Pass type
(mag) Time Alt. Az. Time Alt. Az. Time Alt. Az.
26 Jun ? 02:37:54 10° NE 02:40:03 12° ENE 02:42:11 10° E visible
26 Jun ? 04:19:01 10° N 04:24:53 83° E 04:28:18 26° SSE visible
26 Jun ? 06:05:16 10° NW 06:07:53 13° W 06:10:30 10° WSW visible
27 Jun ? 02:40:31 10° NNE 02:43:43 15° ENE 02:46:53 10° E visible
27 Jun ? 04:22:30 10° N 04:28:20 81° W 04:31:23 30° S visible
27 Jun ? 06:10:18 10° WNW 06:11:11 10° WNW 06:12:03 10° W visible
28 Jun ? 02:43:27 10° NNE 02:47:21 18° ENE 02:51:14 10° ESE visible
28 Jun ? 04:26:00 10° NNW 04:31:47 67° W 04:34:30 32° SSW visible
29 Jun ? 02:46:32 10° NNE 02:50:58 22° ENE 02:54:32 13° ESE visible
29 Jun ? 04:29:33 10° NNW 04:35:12 54° W 04:37:37 33° SSW visible
30 Jun ? 02:49:42 10° NNE 02:54:33 27° ENE 02:57:41 17° ESE visible
30 Jun ? 04:33:08 10° NNW 04:38:36 44° W 04:40:46 31° SW visible
01 Jul ? 02:52:56 10° N 02:58:08 32° ENE 03:00:51 22° ESE visible
01 Jul ? 04:36:44 10° NNW 04:41:59 36° W 04:43:56 28° SW visible
02 Jul ? 02:56:13 10° N 03:01:40 39° ENE 03:04:03 27° ESE visible
02 Jul ? 04:40:25 10° NNW 04:45:21 29° W 04:47:07 25° WSW visible
03 Jul ? 02:59:33 10° N 03:05:11 48° ENE 03:07:15 34° SE visible
03 Jul ? 04:44:10 10° NW 04:48:41 24° W 04:50:21 21° WSW visible
04 Jul ? 03:02:55 10° N 03:08:41 58° ENE 03:10:28 41° SE visible
04 Jul ? 04:47:59 10° NW 04:52:00 20° W 04:53:33 18° WSW visible
05 Jul ? 01:26:49 10° ENE 01:27:11 10° ENE 01:27:32 10° ENE visible
05 Jul ? 03:06:19 10° N 03:12:09 72° E 03:13:43 49° SSE visible
05 Jul ? 04:51:59 10° NW 04:55:18 16° W 04:56:48 14° W visible
